date,time,SUV Intensity [MED/Hr],UV Index,Daily total [MED],Since Last [MED]
06/07/2022,00:10:03,-0.000,0.0,0.0,0.0
06/07/2022,00:11:03,0.000,0.0,0.0,0.0
06/07/2022,00:12:04,0.000,0.0,0.0,0.0
06/07/2022,00:13:03,-0.000,0.0,0.0,0.0
06/07/2022,00:14:04,0.000,0.0,0.0,0.0
06/07/2022,00:15:04,-0.001,0.0,0.0,0.0
06/07/2022,00:16:04,0.000,0.0,0.0,0.0
06/07/2022,00:17:12,0.000,0.0,0.0,0.0
06/07/2022,00:18:04,0.000,0.0,0.0,0.0
06/07/2022,00:19:04,0.000,0.0,0.0,0.0
06/07/2022,00:20:03,0.000,0.0,0.0,0.0
06/07/2022,00:21:03,0.000,0.0,0.0,0.0
06/07/2022,00:22:04,0.000,0.0,0.0,0.0
06/07/2022,00:23:04,0.000,0.0,0.0,0.0
06/07/2022,00:24:04,0.000,0.0,0.0,0.0
06/07/2022,00:25:04,-0.000,0.0,0.0,0.0
06/07/2022,00:26:04,0.000,0.0,0.0,0.0
06/07/2022,00:27:04,0.000,0.0,0.0,0.0
06/07/2022,00:28:03,0.000,0.0,0.0,0.0
06/07/2022,00:29:03,0.000,0.0,0.0,0.0
06/07/2022,00:30:04,0.001,0.0,0.0,0.0
06/07/2022,00:31:04,0.000,0.0,0.0,0.0
06/07/2022,00:32:04,0.001,0.0,0.0,0.0
06/07/2022,00:33:03,0.000,0.0,0.0,0.0
06/07/2022,00:34:04,-0.000,0.0,0.0,0.0
06/07/2022,00:35:04,0.001,0.0,0.0,0.0
06/07/2022,00:36:03,-0.000,0.0,0.0,0.0
06/07/2022,00:37:03,0.000,0.0,0.0,0.0
06/07/2022,00:38:04,-0.000,0.0,0.0,0.0
06/07/2022,00:39:03,0.000,0.0,0.0,0.0
06/07/2022,00:40:12,0.001,0.0,0.0,0.0
06/07/2022,00:41:03,0.001,0.0,0.0,0.0
06/07/2022,00:42:04,0.000,0.0,0.0,0.0
06/07/2022,00:43:04,0.000,0.0,0.0,0.0
06/07/2022,00:44:04,0.000,0.0,0.0,0.0
06/07/2022,00:45:03,0.000,0.0,0.0,0.0
06/07/2022,00:46:03,0.000,0.0,0.0,0.0
06/07/2022,00:47:03,-0.001,0.0,0.0,0.0
06/07/2022,00:48:03,-0.001,0.0,0.0,0.0
06/07/2022,00:49:04,-0.000,0.0,0.0,0.0
06/07/2022,00:50:04,0.000,0.0,0.0,0.0
06/07/2022,00:51:04,0.000,0.0,0.0,0.0
06/07/2022,00:52:12,0.000,0.0,0.0,0.0
06/07/2022,00:54:04,0.000,0.0,0.0,0.0
06/07/2022,00:55:04,-0.000,0.0,0.0,0.0
06/07/2022,00:56:12,-0.000,0.0,0.0,0.0
06/07/2022,00:57:04,0.001,0.0,0.0,0.0
06/07/2022,00:58:04,0.000,0.0,0.0,0.0
06/07/2022,00:59:03,-0.001,0.0,0.0,0.0
06/07/2022,01:00:04,0.000,0.0,0.0,0.0
06/07/2022,01:01:03,0.000,0.0,0.0,0.0
06/07/2022,01:02:04,0.001,0.0,0.0,0.0
06/07/2022,01:03:04,0.000,0.0,0.0,0.0
06/07/2022,01:04:04,-0.001,0.0,0.0,0.0
06/07/2022,01:05:03,-0.000,0.0,0.0,0.0
06/07/2022,01:06:04,0.000,0.0,0.0,0.0
06/07/2022,01:07:04,0.000,0.0,0.0,0.0
06/07/2022,01:08:11,0.000,0.0,0.0,0.0
06/07/2022,01:10:04,0.000,0.0,0.0,0.0
06/07/2022,01:11:03,0.000,0.0,0.0,0.0
06/07/2022,01:12:04,0.000,0.0,0.0,0.0
06/07/2022,01:13:04,0.000,0.0,0.0,0.0
06/07/2022,01:14:03,0.000,0.0,0.0,0.0
06/07/2022,01:15:04,0.000,0.0,0.0,0.0
06/07/2022,01:16:04,0.000,0.0,0.0,0.0
06/07/2022,01:17:03,0.001,0.0,0.0,0.0
06/07/2022,01:18:04,0.000,0.0,0.0,0.0
06/07/2022,01:19:12,0.000,0.0,0.0,0.0
06/07/2022,01:20:04,0.001,0.0,0.0,0.0
06/07/2022,01:21:04,0.000,0.0,0.0,0.0
06/07/2022,01:22:12,0.001,0.0,0.0,0.0
06/07/2022,01:23:04,0.000,0.0,0.0,0.0
06/07/2022,01:24:03,0.001,0.0,0.0,0.0
06/07/2022,01:25:03,-0.001,0.0,0.0,0.0
06/07/2022,01:26:04,0.001,0.0,0.0,0.0
06/07/2022,01:27:04,0.000,0.0,0.0,0.0
06/07/2022,01:28:04,0.001,0.0,0.0,0.0
06/07/2022,01:29:04,-0.001,0.0,0.0,0.0
06/07/2022,01:30:03,0.001,0.0,0.0,0.0
06/07/2022,01:31:03,-0.000,0.0,0.0,0.0
06/07/2022,01:32:03,0.000,0.0,0.0,0.0
06/07/2022,01:33:04,0.000,0.0,0.0,0.0
06/07/2022,01:34:03,0.000,0.0,0.0,0.0
06/07/2022,01:35:12,0.000,0.0,0.0,0.0
06/07/2022,01:36:04,0.000,0.0,0.0,0.0
06/07/2022,01:37:04,0.000,0.0,0.0,0.0
06/07/2022,01:38:03,0.000,0.0,0.0,0.0
06/07/2022,01:39:03,0.001,0.0,0.0,0.0
06/07/2022,01:40:04,0.000,0.0,0.0,0.0
06/07/2022,01:41:04,0.000,0.0,0.0,0.0
06/07/2022,01:42:04,0.000,0.0,0.0,0.0
06/07/2022,01:43:04,0.001,0.0,0.0,0.0
06/07/2022,01:44:04,0.000,0.0,0.0,0.0
06/07/2022,01:45:12,-0.001,0.0,0.0,0.0
06/07/2022,01:46:04,0.000,0.0,0.0,0.0
06/07/2022,01:47:04,0.000,0.0,0.0,0.0
06/07/2022,01:48:04,-0.001,0.0,0.0,0.0
06/07/2022,01:49:04,0.000,0.0,0.0,0.0
06/07/2022,01:50:03,0.000,0.0,0.0,0.0
06/07/2022,01:51:04,0.000,0.0,0.0,0.0
06/07/2022,01:52:03,0.000,0.0,0.0,0.0
06/07/2022,01:53:04,0.000,0.0,0.0,0.0
06/07/2022,01:54:03,-0.001,0.0,0.0,0.0
06/07/2022,01:55:12,0.000,0.0,0.0,0.0
06/07/2022,01:57:04,-0.000,0.0,0.0,0.0
06/07/2022,01:58:12,0.000,0.0,0.0,0.0
06/07/2022,01:59:04,-0.000,0.0,0.0,0.0
06/07/2022,02:00:03,0.001,0.0,0.0,0.0
06/07/2022,02:01:04,0.001,0.0,0.0,0.0
06/07/2022,02:02:04,-0.000,0.0,0.0,0.0
06/07/2022,02:03:03,0.000,0.0,0.0,0.0
06/07/2022,02:04:05,0.000,0.0,0.0,0.0
06/07/2022,02:05:04,0.001,0.0,0.0,0.0
06/07/2022,02:06:03,0.001,0.0,0.0,0.0
06/07/2022,02:07:04,0.000,0.0,0.0,0.0
06/07/2022,02:08:12,0.001,0.0,0.0,0.0
06/07/2022,02:09:04,0.000,0.0,0.0,0.0
06/07/2022,02:10:03,0.001,0.0,0.0,0.0
06/07/2022,02:11:12,0.001,0.0,0.0,0.0
06/07/2022,02:12:04,-0.001,0.0,0.0,0.0
06/07/2022,02:13:03,0.000,0.0,0.0,0.0
06/07/2022,02:14:04,0.000,0.0,0.0,0.0
06/07/2022,02:15:04,0.001,0.0,0.0,0.0
06/07/2022,02:16:04,-0.000,0.0,0.0,0.0
06/07/2022,02:17:03,0.001,0.0,0.0,0.0
06/07/2022,02:18:13,0.000,0.0,0.0,0.0
06/07/2022,02:19:03,0.001,0.0,0.0,0.0
06/07/2022,02:20:04,0.000,0.0,0.0,0.0
06/07/2022,02:21:04,0.000,0.0,0.0,0.0
06/07/2022,02:22:03,0.000,0.0,0.0,0.0
06/07/2022,02:23:04,0.000,0.0,0.0,0.0
06/07/2022,02:24:04,0.000,0.0,0.0,0.0
06/07/2022,02:25:04,0.000,0.0,0.0,0.0
06/07/2022,02:26:04,-0.001,0.0,0.0,0.0
06/07/2022,02:27:04,0.000,0.0,0.0,0.0
06/07/2022,02:28:04,-0.001,0.0,0.0,0.0
06/07/2022,02:29:04,0.001,0.0,0.0,0.0
06/07/2022,02:30:04,0.000,0.0,0.0,0.0
06/07/2022,02:31:04,0.000,0.0,0.0,0.0
06/07/2022,02:32:04,0.001,0.0,0.0,0.0
06/07/2022,02:33:03,-0.000,0.0,0.0,0.0
06/07/2022,02:34:03,0.000,0.0,0.0,0.0
06/07/2022,02:35:04,0.000,0.0,0.0,0.0
06/07/2022,02:36:04,0.000,0.0,0.0,0.0
06/07/2022,02:37:04,-0.001,0.0,0.0,0.0
06/07/2022,02:38:04,-0.001,0.0,0.0,0.0
06/07/2022,02:39:04,0.001,0.0,0.0,0.0
06/07/2022,02:40:04,-0.001,0.0,0.0,0.0
06/07/2022,02:41:03,-0.000,0.0,0.0,0.0
06/07/2022,02:42:04,0.000,0.0,0.0,0.0
06/07/2022,02:43:05,0.001,0.0,0.0,0.0
06/07/2022,02:44:12,-0.000,0.0,0.0,0.0
06/07/2022,02:45:12,0.000,0.0,0.0,0.0
06/07/2022,02:46:04,0.001,0.0,0.0,0.0
06/07/2022,02:47:03,-0.000,0.0,0.0,0.0
06/07/2022,02:48:04,0.000,0.0,0.0,0.0
06/07/2022,02:49:04,-0.001,0.0,0.0,0.0
06/07/2022,02:50:04,0.000,0.0,0.0,0.0
06/07/2022,02:51:04,0.000,0.0,0.0,0.0
06/07/2022,02:52:12,-0.001,0.0,0.0,0.0
06/07/2022,02:53:04,-0.000,0.0,0.0,0.0
06/07/2022,02:54:12,0.000,0.0,0.0,0.0
06/07/2022,02:55:12,-0.001,0.0,0.0,0.0
06/07/2022,02:56:03,0.000,0.0,0.0,0.0
06/07/2022,02:57:04,-0.000,0.0,0.0,0.0
06/07/2022,02:58:04,-0.001,0.0,0.0,0.0
06/07/2022,02:59:04,-0.000,0.0,0.0,0.0
06/07/2022,03:00:04,-0.001,0.0,0.0,0.0
06/07/2022,03:01:03,0.000,0.0,0.0,0.0
06/07/2022,03:02:13,-0.000,0.0,0.0,0.0
06/07/2022,03:03:04,0.001,0.0,0.0,0.0
06/07/2022,03:04:04,-0.001,0.0,0.0,0.0
06/07/2022,03:05:12,0.000,0.0,0.0,0.0
06/07/2022,03:06:13,0.000,0.0,0.0,0.0
06/07/2022,03:07:04,-0.001,0.0,0.0,0.0
06/07/2022,03:08:04,0.000,0.0,0.0,0.0
06/07/2022,03:09:04,-0.000,0.0,0.0,0.0
06/07/2022,03:10:04,0.000,0.0,0.0,0.0
06/07/2022,03:11:04,-0.001,0.0,0.0,0.0
06/07/2022,03:12:04,0.000,0.0,0.0,0.0
06/07/2022,03:13:04,-0.000,0.0,0.0,0.0
06/07/2022,03:14:04,0.000,0.0,0.0,0.0
06/07/2022,03:15:12,-0.001,0.0,0.0,0.0
06/07/2022,03:16:03,0.001,0.0,0.0,0.0
06/07/2022,03:17:04,0.000,0.0,0.0,0.0
06/07/2022,03:18:04,-0.000,0.0,0.0,0.0
06/07/2022,03:19:04,-0.000,0.0,0.0,0.0
06/07/2022,03:20:03,-0.001,0.0,0.0,0.0
06/07/2022,03:21:04,0.000,0.0,0.0,0.0
06/07/2022,03:22:04,0.001,0.0,0.0,0.0
06/07/2022,03:23:04,-0.001,0.0,0.0,0.0
06/07/2022,03:24:04,0.000,0.0,0.0,0.0
06/07/2022,03:25:05,0.000,0.0,0.0,0.0
06/07/2022,03:26:03,0.001,0.0,0.0,0.0
06/07/2022,03:27:04,0.000,0.0,0.0,0.0
06/07/2022,03:28:04,-0.001,0.0,0.0,0.0
06/07/2022,03:29:04,0.000,0.0,0.0,0.0
06/07/2022,03:30:04,0.000,0.0,0.0,0.0
06/07/2022,03:31:04,0.000,0.0,0.0,0.0
06/07/2022,03:32:13,-0.001,0.0,0.0,0.0
06/07/2022,03:33:04,0.000,0.0,0.0,0.0
06/07/2022,03:34:04,-0.001,0.0,0.0,0.0
06/07/2022,03:35:12,-0.001,0.0,0.0,0.0
06/07/2022,03:36:03,0.000,0.0,0.0,0.0
06/07/2022,03:37:04,-0.000,0.0,0.0,0.0
06/07/2022,03:38:12,0.000,0.0,0.0,0.0
06/07/2022,03:39:04,0.000,0.0,0.0,0.0
06/07/2022,03:40:04,0.000,0.0,0.0,0.0
06/07/2022,03:41:04,0.000,0.0,0.0,0.0
06/07/2022,03:42:03,0.000,0.0,0.0,0.0
06/07/2022,03:43:04,0.000,0.0,0.0,0.0
06/07/2022,03:44:04,-0.001,0.0,0.0,0.0
06/07/2022,03:45:12,-0.001,0.0,0.0,0.0
06/07/2022,03:47:04,0.001,0.0,0.0,0.0
06/07/2022,03:48:04,-0.001,0.0,0.0,0.0
06/07/2022,03:49:04,-0.000,0.0,0.0,0.0
06/07/2022,03:50:04,-0.001,0.0,0.0,0.0
06/07/2022,03:51:04,0.000,0.0,0.0,0.0
06/07/2022,03:52:04,0.000,0.0,0.0,0.0
06/07/2022,03:53:04,0.000,0.0,0.0,0.0
06/07/2022,03:54:04,0.000,0.0,0.0,0.0
06/07/2022,03:55:12,0.000,0.0,0.0,0.0
06/07/2022,03:56:05,-0.000,0.0,0.0,0.0
06/07/2022,03:57:04,0.000,0.0,0.0,0.0
06/07/2022,03:58:12,-0.000,0.0,0.0,0.0
06/07/2022,03:59:04,-0.001,0.0,0.0,0.0
06/07/2022,04:00:04,0.001,0.0,0.0,0.0
06/07/2022,04:01:04,0.001,0.0,0.0,0.0
06/07/2022,04:02:04,-0.001,0.0,0.0,0.0
06/07/2022,04:03:04,0.001,0.0,0.0,0.0
06/07/2022,04:04:03,-0.000,0.0,0.0,0.0
06/07/2022,04:05:13,-0.000,0.0,0.0,0.0
06/07/2022,04:06:04,0.001,0.0,0.0,0.0
06/07/2022,04:07:04,0.001,0.0,0.0,0.0
06/07/2022,04:08:12,0.000,0.0,0.0,0.0
06/07/2022,04:09:04,0.001,0.0,0.0,0.0
06/07/2022,04:10:04,0.001,0.0,0.0,0.0
06/07/2022,04:11:12,0.000,0.0,0.0,0.0
06/07/2022,04:12:04,0.002,0.0,0.0,0.0
06/07/2022,04:13:03,0.002,0.0,0.0,0.0
06/07/2022,04:14:04,0.002,0.0,0.0,0.0
06/07/2022,04:15:04,0.002,0.0,0.0,0.0
06/07/2022,04:16:04,0.002,0.0,0.0,0.0
06/07/2022,04:17:04,0.001,0.0,0.0,0.0
06/07/2022,04:18:04,0.003,0.0,0.0,0.0
06/07/2022,04:19:04,0.003,0.0,0.0,0.0
06/07/2022,04:20:04,0.003,0.0,0.0,0.0
06/07/2022,04:21:04,0.003,0.0,0.0,0.0
06/07/2022,04:22:04,0.004,0.0,0.0,0.0
06/07/2022,04:23:04,0.004,0.0,0.0,0.0
06/07/2022,04:24:04,0.004,0.0,0.0,0.0
06/07/2022,04:25:04,0.004,0.0,0.0,0.0
06/07/2022,04:26:04,0.004,0.0,0.0,0.0
06/07/2022,04:27:04,0.004,0.0,0.0,0.0
06/07/2022,04:28:12,0.003,0.0,0.0,0.0
06/07/2022,04:29:03,0.005,0.0,0.0,0.0
06/07/2022,04:30:04,0.004,0.0,0.0,0.0
06/07/2022,04:31:04,0.005,0.0,0.0,0.0
06/07/2022,04:32:04,0.005,0.0,0.0,0.0
06/07/2022,04:33:05,0.006,0.0,0.0,0.0
06/07/2022,04:34:04,0.007,0.0,0.0,0.0
06/07/2022,04:35:04,0.007,0.0,0.0,0.0
06/07/2022,04:36:04,0.007,0.0,0.0,0.0
06/07/2022,04:37:04,0.007,0.0,0.0,0.0
06/07/2022,04:38:04,0.008,0.0,0.001,0.001
06/07/2022,04:39:04,0.008,0.0,0.001,0.0
06/07/2022,04:40:04,0.009,0.0,0.001,0.0
06/07/2022,04:41:04,0.008,0.0,0.001,0.0
06/07/2022,04:42:12,0.009,0.0,0.001,0.0
06/07/2022,04:43:04,0.009,0.0,0.001,0.0
06/07/2022,04:44:04,0.008,0.0,0.001,0.0
06/07/2022,04:45:04,0.010,0.0,0.002,0.001
06/07/2022,04:46:04,0.010,0.0,0.002,0.0
06/07/2022,04:47:04,0.010,0.0,0.002,0.0
06/07/2022,04:48:04,0.011,0.0,0.002,0.0
06/07/2022,04:49:04,0.011,0.0,0.002,0.0
06/07/2022,04:50:04,0.011,0.0,0.002,0.0
06/07/2022,04:51:04,0.011,0.0,0.003,0.001
06/07/2022,04:52:12,0.011,0.0,0.003,0.0
06/07/2022,04:53:13,0.011,0.0,0.003,0.0
06/07/2022,04:54:04,0.012,0.0,0.003,0.0
06/07/2022,04:55:12,0.012,0.0,0.003,0.0
06/07/2022,04:56:04,0.013,0.0,0.004,0.001
06/07/2022,04:57:04,0.013,0.0,0.004,0.0
06/07/2022,04:58:04,0.014,0.0,0.004,0.0
06/07/2022,04:59:04,0.014,0.0,0.004,0.0
06/07/2022,05:00:04,0.015,0.0,0.004,0.0
06/07/2022,05:01:04,0.015,0.0,0.005,0.001
06/07/2022,05:02:12,0.016,0.0,0.005,0.0
06/07/2022,05:03:04,0.015,0.0,0.005,0.0
06/07/2022,05:04:04,0.016,0.0,0.005,0.0
06/07/2022,05:05:04,0.017,0.0,0.006,0.001
06/07/2022,05:06:04,0.017,0.0,0.006,0.0
06/07/2022,05:07:04,0.019,0.0,0.006,0.0
06/07/2022,05:08:04,0.019,0.0,0.007,0.001
06/07/2022,05:09:04,0.020,0.0,0.007,0.0
06/07/2022,05:10:04,0.021,0.0,0.007,0.0
06/07/2022,05:11:12,0.021,0.0,0.008,0.001
06/07/2022,05:12:04,0.020,0.0,0.008,0.0
06/07/2022,05:13:05,0.020,0.0,0.008,0.0
06/07/2022,05:14:04,0.020,0.0,0.009,0.001
06/07/2022,05:15:04,0.021,0.0,0.009,0.0
06/07/2022,05:16:03,0.022,0.0,0.009,0.0
06/07/2022,05:17:04,0.023,0.0,0.01,0.001
06/07/2022,05:18:12,0.024,0.0,0.01,0.0
06/07/2022,05:19:04,0.024,0.0,0.011,0.001
06/07/2022,05:20:05,0.024,0.0,0.011,0.0
06/07/2022,05:21:05,0.024,0.0,0.011,0.0
06/07/2022,05:22:05,0.023,0.0,0.012,0.001
06/07/2022,05:23:05,0.023,0.0,0.012,0.0
06/07/2022,05:24:04,0.025,0.0,0.012,0.0
06/07/2022,05:25:04,0.024,0.0,0.013,0.001
06/07/2022,05:26:04,0.025,0.0,0.013,0.0
06/07/2022,05:27:04,0.028,0.0,0.014,0.001
06/07/2022,05:28:05,0.029,0.0,0.014,0.0
06/07/2022,05:29:04,0.031,0.0,0.015,0.001
06/07/2022,05:30:04,0.032,0.0,0.015,0.0
06/07/2022,05:31:04,0.032,0.0,0.016,0.001
06/07/2022,05:32:12,0.031,0.0,0.016,0.0
06/07/2022,05:33:04,0.031,0.0,0.017,0.001
06/07/2022,05:34:05,0.033,0.0,0.017,0.0
06/07/2022,05:35:04,0.034,0.0,0.018,0.001
06/07/2022,05:36:04,0.033,0.0,0.018,0.0
06/07/2022,05:37:04,0.032,0.0,0.019,0.001
06/07/2022,05:38:04,0.031,0.0,0.02,0.001
06/07/2022,05:39:04,0.029,0.0,0.02,0.0
06/07/2022,05:40:04,0.028,0.0,0.021,0.001
06/07/2022,05:41:04,0.028,0.0,0.021,0.0
06/07/2022,05:42:04,0.033,0.0,0.022,0.001
06/07/2022,05:43:04,0.039,0.0,0.022,0.0
06/07/2022,05:44:04,0.040,0.0,0.023,0.001
06/07/2022,05:45:04,0.040,0.0,0.023,0.0
06/07/2022,05:46:04,0.043,0.0,0.024,0.001
06/07/2022,05:47:05,0.052,0.0,0.025,0.001
06/07/2022,05:48:12,0.057,0.0,0.026,0.001
06/07/2022,05:49:04,0.060,0.0,0.027,0.001
06/07/2022,05:50:04,0.061,0.0,0.028,0.001
06/07/2022,05:51:04,0.061,0.0,0.029,0.001
06/07/2022,05:52:04,0.060,0.0,0.03,0.001
06/07/2022,05:52:55,0.058,0.0,0.031,0.001
06/07/2022,05:54:04,0.059,0.0,0.032,0.001
06/07/2022,05:55:04,0.062,0.0,0.033,0.001
06/07/2022,05:56:03,0.063,0.0,0.034,0.001
06/07/2022,05:57:14,0.064,0.0,0.035,0.001
06/07/2022,05:58:03,0.066,0.0,0.036,0.001
06/07/2022,05:59:04,0.068,0.0,0.037,0.001
06/07/2022,06:00:04,0.068,0.0,0.038,0.001
06/07/2022,06:01:04,0.069,0.0,0.039,0.001
06/07/2022,06:02:04,0.068,0.0,0.041,0.002
06/07/2022,06:03:04,0.066,0.0,0.042,0.001
06/07/2022,06:04:04,0.068,0.0,0.043,0.001
06/07/2022,06:05:04,0.070,0.0,0.044,0.001
06/07/2022,06:06:12,0.074,0.0,0.045,0.001
06/07/2022,06:08:17,0.091,0.0,0.048,0.003
06/07/2022,06:10:05,0.104,0.0,0.051,0.003
06/07/2022,06:11:04,0.105,0.0,0.053,0.002
06/07/2022,06:12:04,0.099,0.0,0.054,0.001
06/07/2022,06:13:04,0.091,0.0,0.056,0.002
06/07/2022,06:14:04,0.088,0.0,0.058,0.002
06/07/2022,06:15:06,0.091,0.0,0.059,0.001
06/07/2022,06:16:13,0.096,0.0,0.061,0.002
06/07/2022,06:17:04,0.101,0.0,0.062,0.001
06/07/2022,06:18:04,0.104,0.0,0.064,0.002
06/07/2022,06:19:05,0.106,0.0,0.066,0.002
06/07/2022,06:20:04,0.111,0.0,0.067,0.001
06/07/2022,06:21:05,0.117,0.0,0.069,0.002
06/07/2022,06:22:04,0.121,0.0,0.071,0.002
06/07/2022,06:23:04,0.125,0.0,0.073,0.002
06/07/2022,06:24:06,0.130,0.0,0.076,0.003
06/07/2022,06:25:04,0.136,0.0,0.078,0.002
06/07/2022,06:26:02,0.144,0.0,0.08,0.002
06/07/2022,06:27:04,0.153,0.0,0.082,0.002
06/07/2022,06:28:04,0.161,0.0,0.085,0.003
06/07/2022,06:29:13,0.170,0.0,0.088,0.003
06/07/2022,06:30:04,0.173,0.0,0.091,0.003
06/07/2022,06:31:04,0.173,0.0,0.094,0.003
06/07/2022,06:32:04,0.174,0.0,0.096,0.002
06/07/2022,06:33:04,0.180,0.0,0.099,0.003
06/07/2022,06:34:04,0.193,0.0,0.103,0.004
06/07/2022,06:35:04,0.205,0.0,0.106,0.003
06/07/2022,06:36:05,0.217,0.0,0.109,0.003
06/07/2022,06:37:04,0.223,1.0,0.113,0.004
06/07/2022,06:38:04,0.229,1.0,0.117,0.004
06/07/2022,06:39:12,0.228,1.0,0.121,0.004
06/07/2022,06:40:04,0.230,1.0,0.124,0.003
06/07/2022,06:41:04,0.228,1.0,0.128,0.004
06/07/2022,06:42:05,0.221,1.0,0.132,0.004
06/07/2022,06:43:04,0.207,0.0,0.136,0.004
06/07/2022,06:44:04,0.194,0.0,0.139,0.003
06/07/2022,06:45:04,0.181,0.0,0.142,0.003
06/07/2022,06:46:04,0.163,0.0,0.145,0.003
06/07/2022,06:47:05,0.154,0.0,0.148,0.003
06/07/2022,06:48:04,0.148,0.0,0.15,0.002
06/07/2022,06:49:12,0.133,0.0,0.153,0.003
06/07/2022,06:50:04,0.126,0.0,0.155,0.002
06/07/2022,06:51:04,0.122,0.0,0.157,0.002
06/07/2022,06:52:14,0.124,0.0,0.159,0.002
06/07/2022,06:54:05,0.124,0.0,0.163,0.004
06/07/2022,06:55:05,0.126,0.0,0.165,0.002
06/07/2022,06:56:04,0.130,0.0,0.167,0.002
06/07/2022,06:57:05,0.131,0.0,0.169,0.002
06/07/2022,06:58:04,0.132,0.0,0.171,0.002
06/07/2022,06:59:04,0.136,0.0,0.174,0.003
06/07/2022,07:00:04,0.141,0.0,0.176,0.002
06/07/2022,07:01:05,0.149,0.0,0.178,0.002
06/07/2022,07:01:55,0.156,0.0,0.18,0.002
06/07/2022,07:03:05,0.166,0.0,0.184,0.004
06/07/2022,07:04:04,0.174,0.0,0.186,0.002
06/07/2022,07:05:13,0.180,0.0,0.19,0.004
06/07/2022,07:06:12,0.185,0.0,0.193,0.003
06/07/2022,07:07:04,0.190,0.0,0.196,0.003
06/07/2022,07:08:04,0.194,0.0,0.199,0.003
06/07/2022,07:09:04,0.197,0.0,0.202,0.003
06/07/2022,07:10:04,0.203,0.0,0.205,0.003
06/07/2022,07:11:04,0.203,0.0,0.209,0.004
06/07/2022,07:12:04,0.204,0.0,0.212,0.003
06/07/2022,07:13:04,0.206,0.0,0.216,0.004
06/07/2022,07:14:04,0.199,0.0,0.219,0.003
06/07/2022,07:15:13,0.195,0.0,0.223,0.004
06/07/2022,07:16:13,0.211,0.0,0.226,0.003
06/07/2022,07:17:04,0.231,1.0,0.229,0.003
06/07/2022,07:18:04,0.255,1.0,0.233,0.004
06/07/2022,07:19:05,0.272,1.0,0.238,0.005
06/07/2022,07:20:04,0.281,1.0,0.242,0.004
06/07/2022,07:21:04,0.283,1.0,0.247,0.005
06/07/2022,07:22:04,0.285,1.0,0.252,0.005
06/07/2022,07:23:04,0.287,1.0,0.257,0.005
06/07/2022,07:24:04,0.282,1.0,0.261,0.004
06/07/2022,07:25:13,0.277,1.0,0.267,0.006
06/07/2022,07:27:13,0.291,1.0,0.276,0.009
06/07/2022,07:28:05,0.297,1.0,0.28,0.004
06/07/2022,07:29:04,0.311,1.0,0.285,0.005
06/07/2022,07:30:05,0.336,1.0,0.291,0.006
06/07/2022,07:31:04,0.365,1.0,0.297,0.006
06/07/2022,07:32:04,0.389,1.0,0.303,0.006
06/07/2022,07:33:04,0.407,1.0,0.309,0.006
06/07/2022,07:34:04,0.429,1.0,0.316,0.007
06/07/2022,07:35:30,0.453,1.0,0.327,0.011
06/07/2022,07:37:04,0.474,1.0,0.339,0.012
06/07/2022,07:38:04,0.485,1.0,0.347,0.008
06/07/2022,07:39:05,0.479,1.0,0.355,0.008
06/07/2022,07:40:04,0.478,1.0,0.363,0.008
06/07/2022,07:41:04,0.477,1.0,0.371,0.008
06/07/2022,07:42:05,0.483,1.0,0.379,0.008
06/07/2022,07:43:04,0.482,1.0,0.387,0.008
06/07/2022,07:44:05,0.482,1.0,0.395,0.008
06/07/2022,07:45:04,0.470,1.0,0.403,0.008
06/07/2022,07:46:04,0.451,1.0,0.411,0.008
06/07/2022,07:47:04,0.424,1.0,0.418,0.007
06/07/2022,07:48:05,0.413,1.0,0.425,0.007
06/07/2022,07:49:04,0.416,1.0,0.432,0.007
06/07/2022,07:50:04,0.430,1.0,0.439,0.007
06/07/2022,07:51:04,0.445,1.0,0.446,0.007
06/07/2022,07:52:05,0.461,1.0,0.454,0.008
06/07/2022,07:53:04,0.457,1.0,0.461,0.007
06/07/2022,07:54:05,0.435,1.0,0.469,0.008
06/07/2022,07:55:04,0.414,1.0,0.476,0.007
06/07/2022,07:56:12,0.410,1.0,0.484,0.008
06/07/2022,07:57:04,0.420,1.0,0.49,0.006
06/07/2022,07:58:04,0.429,1.0,0.497,0.007
06/07/2022,07:59:05,0.440,1.0,0.504,0.007
06/07/2022,08:00:04,0.443,1.0,0.511,0.007
06/07/2022,08:01:05,0.443,1.0,0.519,0.008
06/07/2022,08:02:12,0.445,1.0,0.527,0.008
06/07/2022,08:03:05,0.451,1.0,0.534,0.007
06/07/2022,08:04:05,0.451,1.0,0.541,0.007
06/07/2022,08:05:04,0.444,1.0,0.549,0.008
06/07/2022,08:06:05,0.449,1.0,0.556,0.007
06/07/2022,08:07:04,0.463,1.0,0.564,0.008
06/07/2022,08:08:04,0.481,1.0,0.572,0.008
06/07/2022,08:09:04,0.497,1.0,0.58,0.008
06/07/2022,08:10:05,0.511,1.0,0.588,0.008
06/07/2022,08:11:04,0.530,1.0,0.597,0.009
06/07/2022,08:12:14,0.561,1.0,0.607,0.01
06/07/2022,08:13:04,0.579,1.0,0.615,0.008
06/07/2022,08:14:04,0.579,1.0,0.625,0.01
06/07/2022,08:15:05,0.585,1.0,0.635,0.01
06/07/2022,08:16:04,0.600,1.0,0.644,0.009
06/07/2022,08:17:05,0.621,1.0,0.655,0.011
06/07/2022,08:18:04,0.648,1.0,0.665,0.01
06/07/2022,08:19:13,0.684,2.0,0.678,0.013
06/07/2022,08:20:04,0.707,2.0,0.688,0.01
06/07/2022,08:21:05,0.724,2.0,0.7,0.012
06/07/2022,08:22:13,0.728,2.0,0.713,0.013
06/07/2022,08:23:04,0.740,2.0,0.724,0.011
06/07/2022,08:24:05,0.420,1.0,0.736,0.012
06/07/2022,08:25:04,0.899,2.0,0.749,0.013
06/07/2022,08:26:04,0.932,2.0,0.764,0.015
06/07/2022,08:27:04,0.994,2.0,0.779,0.015
06/07/2022,08:28:05,0.986,2.0,0.795,0.016
06/07/2022,08:29:04,0.908,2.0,0.811,0.016
06/07/2022,08:30:04,0.908,2.0,0.827,0.016
06/07/2022,08:31:05,0.989,2.0,0.842,0.015
06/07/2022,08:32:12,1.056,2.0,0.862,0.02
06/07/2022,08:33:05,1.043,2.0,0.877,0.015
06/07/2022,08:34:11,0.998,2.0,0.896,0.019
06/07/2022,08:35:05,1.006,2.0,0.91,0.014
06/07/2022,08:36:04,1.052,2.0,0.927,0.017
06/07/2022,08:37:04,0.936,2.0,0.944,0.017
06/07/2022,08:38:13,1.008,2.0,0.962,0.018
06/07/2022,08:39:04,0.830,2.0,0.976,0.014
06/07/2022,08:40:04,0.728,2.0,0.989,0.013
06/07/2022,08:41:04,0.733,2.0,1.001,0.012
06/07/2022,08:42:04,0.751,2.0,1.013,0.012
06/07/2022,08:43:04,0.759,2.0,1.026,0.013
06/07/2022,08:44:04,0.903,2.0,1.039,0.013
06/07/2022,08:45:04,0.974,2.0,1.055,0.016
06/07/2022,08:46:04,1.036,2.0,1.071,0.016
06/07/2022,08:47:05,1.095,3.0,1.089,0.018
06/07/2022,08:48:04,1.111,3.0,1.107,0.018
06/07/2022,08:49:04,1.170,3.0,1.127,0.02
06/07/2022,08:50:05,1.085,2.0,1.146,0.019
06/07/2022,08:51:12,0.974,2.0,1.168,0.022
06/07/2022,08:52:05,1.038,2.0,1.185,0.017
06/07/2022,08:53:04,0.974,2.0,1.201,0.016
06/07/2022,08:54:05,1.260,3.0,1.219,0.018
06/07/2022,08:55:04,1.289,3.0,1.241,0.022
06/07/2022,08:56:04,1.118,3.0,1.261,0.02
06/07/2022,08:57:04,0.954,2.0,1.28,0.019
06/07/2022,08:58:05,1.051,2.0,1.296,0.016
06/07/2022,08:59:04,1.087,3.0,1.314,0.018
06/07/2022,09:00:04,1.105,3.0,1.333,0.019
06/07/2022,09:01:13,1.058,2.0,1.354,0.021
06/07/2022,09:02:04,1.215,3.0,1.369,0.015
06/07/2022,09:03:05,1.030,2.0,1.389,0.02
06/07/2022,09:04:12,1.045,2.0,1.409,0.02
06/07/2022,09:05:05,0.948,2.0,1.423,0.014
06/07/2022,09:06:05,0.892,2.0,1.439,0.016
06/07/2022,09:07:12,0.876,2.0,1.455,0.016
06/07/2022,09:08:04,0.889,2.0,1.468,0.013
06/07/2022,09:09:04,0.911,2.0,1.483,0.015
06/07/2022,09:10:04,0.944,2.0,1.498,0.015
06/07/2022,09:11:05,0.870,2.0,1.514,0.016
06/07/2022,09:12:04,0.817,2.0,1.528,0.014
06/07/2022,09:13:05,0.802,2.0,1.541,0.013
06/07/2022,09:14:04,0.807,2.0,1.555,0.014
06/07/2022,09:15:05,0.820,2.0,1.568,0.013
06/07/2022,09:16:04,0.852,2.0,1.582,0.014
06/07/2022,09:17:12,0.898,2.0,1.599,0.017
06/07/2022,09:18:05,0.925,2.0,1.612,0.013
06/07/2022,09:19:05,0.935,2.0,1.628,0.016
06/07/2022,09:20:13,0.945,2.0,1.645,0.017
06/07/2022,09:21:04,0.948,2.0,1.659,0.014
06/07/2022,09:22:05,0.958,2.0,1.675,0.016
06/07/2022,09:23:05,0.948,2.0,1.691,0.016
06/07/2022,09:24:04,0.925,2.0,1.707,0.016
06/07/2022,09:25:04,0.896,2.0,1.722,0.015
06/07/2022,09:26:05,0.874,2.0,1.737,0.015
06/07/2022,09:27:04,0.886,2.0,1.751,0.014
06/07/2022,09:28:04,0.906,2.0,1.766,0.015
06/07/2022,09:29:05,0.912,2.0,1.781,0.015
06/07/2022,09:30:12,0.893,2.0,1.798,0.017
06/07/2022,09:32:05,0.878,2.0,1.826,0.028
06/07/2022,09:33:04,0.909,2.0,1.841,0.015
06/07/2022,09:34:04,0.949,2.0,1.856,0.015
06/07/2022,09:35:05,0.963,2.0,1.872,0.016
06/07/2022,09:36:05,0.975,2.0,1.888,0.016
06/07/2022,09:37:04,1.012,2.0,1.905,0.017
06/07/2022,09:38:04,1.050,2.0,1.922,0.017
06/07/2022,09:38:55,1.086,2.0,1.937,0.015
06/07/2022,09:39:57,1.127,3.0,1.956,0.019
06/07/2022,09:41:05,1.121,3.0,1.977,0.021
06/07/2022,09:42:04,1.154,3.0,1.996,0.019
06/07/2022,09:43:05,1.183,3.0,2.015,0.019
06/07/2022,09:44:05,1.168,3.0,2.035,0.02
06/07/2022,09:45:04,1.274,3.0,2.055,0.02
06/07/2022,09:46:12,1.255,3.0,2.08,0.025
06/07/2022,09:48:05,1.253,3.0,2.119,0.039
06/07/2022,09:49:13,1.261,3.0,2.143,0.024
06/07/2022,09:50:04,1.277,3.0,2.161,0.018
06/07/2022,09:51:04,1.236,3.0,2.182,0.021
06/07/2022,09:52:04,1.211,3.0,2.203,0.021
06/07/2022,09:53:05,1.193,3.0,2.223,0.02
06/07/2022,09:54:05,1.209,3.0,2.243,0.02
06/07/2022,09:55:04,1.225,3.0,2.263,0.02
06/07/2022,09:56:04,1.225,3.0,2.283,0.02
06/07/2022,09:57:05,1.224,3.0,2.304,0.021
06/07/2022,09:58:04,1.154,3.0,2.324,0.02
06/07/2022,09:59:04,1.165,3.0,2.343,0.019
06/07/2022,10:00:04,1.126,3.0,2.362,0.019
06/07/2022,10:01:05,1.068,2.0,2.381,0.019
06/07/2022,10:02:05,0.875,2.0,2.397,0.016
06/07/2022,10:03:05,0.745,2.0,2.41,0.013
06/07/2022,10:04:05,0.699,2.0,2.422,0.012
06/07/2022,10:05:04,0.731,2.0,2.434,0.012
06/07/2022,10:06:05,0.805,2.0,2.447,0.013
06/07/2022,10:07:04,0.833,2.0,2.46,0.013
06/07/2022,10:08:04,0.815,2.0,2.474,0.014
06/07/2022,10:09:05,0.795,2.0,2.487,0.013
06/07/2022,10:10:04,0.790,2.0,2.501,0.014
06/07/2022,10:11:04,0.792,2.0,2.514,0.013
06/07/2022,10:12:04,0.801,2.0,2.527,0.013
06/07/2022,10:13:05,0.814,2.0,2.541,0.014
06/07/2022,10:14:04,0.860,2.0,2.554,0.013
06/07/2022,10:15:05,0.904,2.0,2.569,0.015
06/07/2022,10:16:04,0.847,2.0,2.584,0.015